Time,TemperatureF,DewpointF,PressureIn,WindDirection,WindDirectionDegrees,WindSpeedMPH,WindSpeedGustMPH,Humidity,HourlyPrecipIn,Conditions,Clouds,dailyrainin,SolarRadiationWatts/m^2,SoftwareType,DateUTC
2013-03-28 00:10:00,38.9,32.0,30.19,South,184,0.0,4.0,75,0.00,,,0.00,0,weatherlink.com 1.10,2013-03-28 05:10:00,
2013-03-28 00:25:00,39.7,32.0,30.19,South,182,2.0,4.0,74,0.00,,,0.00,0,weatherlink.com 1.10,2013-03-28 05:25:00,
2013-03-28 00:40:00,40.2,32.0,30.19,South,176,0.0,2.0,72,0.00,,,0.00,0,weatherlink.com 1.10,2013-03-28 05:40:00,
2013-03-28 00:55:00,40.7,32.0,30.18,South,173,0.0,5.0,71,0.00,,,0.00,0,weatherlink.com 1.10,2013-03-28 05:55:00,
2013-03-28 01:10:00,40.1,31.0,30.18,South,177,1.0,5.0,71,0.00,,,0.00,0,weatherlink.com 1.10,2013-03-28 06:10:00,
2013-03-28 01:25:00,38.7,31.0,30.19,South,175,0.0,5.0,74,0.00,,,0.00,0,weatherlink.com 1.10,2013-03-28 06:25:00,
2013-03-28 01:40:00,38.2,31.0,30.19,South,182,0.0,3.0,75,0.00,,,0.00,0,weatherlink.com 1.10,2013-03-28 06:40:00,
2013-03-28 01:55:00,38.3,31.0,30.19,South,176,0.0,3.0,74,0.00,,,0.00,0,weatherlink.com 1.10,2013-03-28 06:55:00,
2013-03-28 02:10:00,38.7,31.0,30.19,South,177,0.0,3.0,74,0.00,,,0.00,0,weatherlink.com 1.10,2013-03-28 07:10:00,
2013-03-28 02:25:00,38.4,31.0,30.19,South,178,1.0,3.0,74,0.00,,,0.00,0,weatherlink.com 1.10,2013-03-28 07:25:00,
2013-03-28 02:40:00,37.9,31.0,30.19,South,178,0.0,3.0,75,0.00,,,0.00,0,weatherlink.com 1.10,2013-03-28 07:40:00,
2013-03-28 02:55:00,37.1,31.0,30.19,South,186,1.0,6.0,77,0.00,,,0.00,0,weatherlink.com 1.10,2013-03-28 07:55:00,
2013-03-28 03:10:00,37.5,31.0,30.19,South,177,0.0,1.0,77,0.00,,,0.00,0,weatherlink.com 1.10,2013-03-28 08:10:00,
2013-03-28 03:25:00,36.4,30.0,30.18,SSW,198,1.0,8.0,79,0.00,,,0.00,0,weatherlink.com 1.10,2013-03-28 08:25:00,
2013-03-28 03:40:00,36.5,31.0,30.18,South,184,2.0,7.0,79,0.00,,,0.00,0,weatherlink.com 1.10,2013-03-28 08:40:00,
2013-03-28 03:55:00,36.8,31.0,30.18,South,186,0.0,4.0,78,0.00,,,0.00,0,weatherlink.com 1.10,2013-03-28 08:55:00,
2013-03-28 04:10:00,36.8,31.0,30.18,South,190,0.0,4.0,78,0.00,,,0.00,0,weatherlink.com 1.10,2013-03-28 09:10:00,
2013-03-28 04:25:00,37.3,30.0,30.18,South,178,0.0,3.0,76,0.00,,,0.00,0,weatherlink.com 1.10,2013-03-28 09:25:00,
2013-03-28 04:40:00,36.5,30.0,30.17,South,171,0.0,5.0,77,0.00,,,0.00,0,weatherlink.com 1.10,2013-03-28 09:40:00,
2013-03-28 04:55:00,36.3,30.0,30.17,South,173,0.0,2.0,77,0.00,,,0.00,0,weatherlink.com 1.10,2013-03-28 09:55:00,
2013-03-28 05:10:00,35.4,29.0,30.16,SE,146,0.0,5.0,78,0.00,,,0.00,0,weatherlink.com 1.10,2013-03-28 10:10:00,
2013-03-28 05:25:00,36.0,30.0,30.15,ESE,109,2.0,7.0,78,0.00,,,0.00,0,weatherlink.com 1.10,2013-03-28 10:25:00,
2013-03-28 05:40:00,36.2,30.0,30.15,ESE,111,0.0,4.0,78,0.00,,,0.00,0,weatherlink.com 1.10,2013-03-28 10:40:00,
2013-03-28 05:55:00,36.9,30.0,30.14,SE,142,0.0,3.0,76,0.00,,,0.00,0,weatherlink.com 1.10,2013-03-28 10:55:00,
2013-03-28 06:11:00,36.4,30.0,30.14,South,184,0.0,1.0,76,0.00,,,0.00,0,weatherlink.com 1.10,2013-03-28 11:11:00,
2013-03-28 06:26:00,36.1,30.0,30.14,South,184,0.0,3.0,78,0.00,,,0.00,0,weatherlink.com 1.10,2013-03-28 11:26:00,
2013-03-28 06:41:00,36.6,30.0,30.14,South,180,0.0,0.0,77,0.00,,,0.00,0,weatherlink.com 1.10,2013-03-28 11:41:00,
2013-03-28 06:56:00,36.4,30.0,30.15,South,186,0.0,4.0,77,0.00,,,0.00,0,weatherlink.com 1.10,2013-03-28 11:56:00,
2013-03-28 07:11:00,35.2,29.0,30.14,South,183,0.0,4.0,79,0.00,,,0.00,0,weatherlink.com 1.10,2013-03-28 12:11:00,
2013-03-28 07:26:00,34.4,29.0,30.15,SSW,198,2.0,6.0,82,0.00,,,0.00,0,weatherlink.com 1.10,2013-03-28 12:26:00,
2013-03-28 07:41:00,35.1,30.0,30.15,SSW,202,4.0,8.0,81,0.00,,,0.00,9,weatherlink.com 1.10,2013-03-28 12:41:00,
2013-03-28 08:11:00,36.4,30.0,30.16,South,174,0.0,4.0,79,0.00,,,0.00,49,weatherlink.com 1.10,2013-03-28 13:11:00,
2013-03-28 08:26:00,37.1,31.0,30.16,South,184,0.0,6.0,77,0.00,,,0.00,83,weatherlink.com 1.10,2013-03-28 13:26:00,
2013-03-28 09:11:00,37.9,32.0,30.16,South,185,0.0,0.0,78,0.00,,,0.00,279,weatherlink.com 1.10,2013-03-28 14:11:00,
2013-03-28 09:26:00,39.9,33.0,30.16,South,178,1.0,4.0,77,0.00,,,0.00,352,weatherlink.com 1.10,2013-03-28 14:26:00,
2013-03-28 09:41:00,40.2,33.0,30.16,SSW,194,1.0,6.0,76,0.00,,,0.00,246,weatherlink.com 1.10,2013-03-28 14:41:00,
2013-03-28 09:56:00,42.2,34.0,30.17,South,177,5.0,8.0,73,0.00,,,0.00,462,weatherlink.com 1.10,2013-03-28 14:56:00,
2013-03-28 10:11:00,43.6,35.0,30.16,South,183,6.0,9.0,71,0.00,,,0.00,229,weatherlink.com 1.10,2013-03-28 15:11:00,
2013-03-28 10:26:00,44.7,35.0,30.17,South,171,3.0,6.0,70,0.00,,,0.00,206,weatherlink.com 1.10,2013-03-28 15:26:00,
2013-03-28 10:41:00,46.3,36.0,30.17,SSW,194,0.0,4.0,67,0.00,,,0.00,297,weatherlink.com 1.10,2013-03-28 15:41:00,
2013-03-28 10:56:00,47.9,35.0,30.16,SE,136,3.0,7.0,62,0.00,,,0.00,188,weatherlink.com 1.10,2013-03-28 15:56:00,
2013-03-28 11:11:00,50.5,35.0,30.16,SSE,161,2.0,11.0,56,0.00,,,0.00,638,weatherlink.com 1.10,2013-03-28 16:11:00,
2013-03-28 11:27:00,52.0,36.0,30.16,SE,132,2.0,10.0,54,0.00,,,0.00,668,weatherlink.com 1.10,2013-03-28 16:27:00,
2013-03-28 11:41:00,52.7,35.0,30.16,South,190,1.0,13.0,51,0.00,,,0.00,729,weatherlink.com 1.10,2013-03-28 16:41:00,
2013-03-28 11:56:00,53.5,33.0,30.16,South,181,3.0,12.0,46,0.00,,,0.00,701,weatherlink.com 1.10,2013-03-28 16:56:00,
2013-03-28 12:12:00,53.5,35.0,30.16,South,172,8.0,15.0,49,0.00,,,0.00,696,weatherlink.com 1.10,2013-03-28 17:12:00,
2013-03-28 12:27:00,54.1,34.0,30.16,SSE,147,8.0,12.0,47,0.00,,,0.00,786,weatherlink.com 1.10,2013-03-28 17:27:00,
2013-03-28 12:42:00,55.4,35.0,30.15,South,172,7.0,14.0,47,0.00,,,0.00,786,weatherlink.com 1.10,2013-03-28 17:42:00,
2013-03-28 12:57:00,56.2,36.0,30.14,South,179,8.0,14.0,47,0.00,,,0.00,838,weatherlink.com 1.10,2013-03-28 17:57:00,
2013-03-28 13:12:00,56.6,36.0,30.14,SSE,160,10.0,18.0,46,0.00,,,0.00,828,weatherlink.com 1.10,2013-03-28 18:12:00,
2013-03-28 13:27:00,56.5,35.0,30.13,South,169,6.0,16.0,44,0.00,,,0.00,831,weatherlink.com 1.10,2013-03-28 18:27:00,
2013-03-28 13:42:00,57.4,35.0,30.12,SSE,163,7.0,18.0,44,0.00,,,0.00,835,weatherlink.com 1.10,2013-03-28 18:42:00,
2013-03-28 13:57:00,57.8,36.0,30.12,SSW,205,13.0,16.0,44,0.00,,,0.00,830,weatherlink.com 1.10,2013-03-28 18:57:00,
2013-03-28 14:12:00,58.0,35.0,30.11,SE,136,6.0,18.0,43,0.00,,,0.00,786,weatherlink.com 1.10,2013-03-28 19:12:00,
2013-03-28 14:27:00,59.6,37.0,30.11,SSE,168,3.0,21.0,44,0.00,,,0.00,814,weatherlink.com 1.10,2013-03-28 19:27:00,
2013-03-28 14:42:00,60.1,37.0,30.10,SSW,211,13.0,17.0,43,0.00,,,0.00,814,weatherlink.com 1.10,2013-03-28 19:42:00,
2013-03-28 14:57:00,60.2,37.0,30.09,SSE,153,7.0,18.0,42,0.00,,,0.00,789,weatherlink.com 1.10,2013-03-28 19:57:00,
2013-03-28 15:12:00,60.8,35.0,30.09,SSW,198,12.0,17.0,39,0.00,,,0.00,772,weatherlink.com 1.10,2013-03-28 20:12:00,
2013-03-28 15:27:00,61.6,37.0,30.08,SSW,203,7.0,17.0,40,0.00,,,0.00,745,weatherlink.com 1.10,2013-03-28 20:27:00,
2013-03-28 15:42:00,61.9,36.0,30.07,South,174,7.0,17.0,38,0.00,,,0.00,721,weatherlink.com 1.10,2013-03-28 20:42:00,
2013-03-28 15:57:00,62.2,37.0,30.06,SSW,198,12.0,16.0,40,0.00,,,0.00,705,weatherlink.com 1.10,2013-03-28 20:57:00,
2013-03-28 16:12:00,62.9,36.0,30.06,South,187,6.0,17.0,37,0.00,,,0.00,663,weatherlink.com 1.10,2013-03-28 21:12:00,
2013-03-28 16:27:00,63.0,35.0,30.05,South,173,9.0,16.0,36,0.00,,,0.00,638,weatherlink.com 1.10,2013-03-28 21:27:00,
2013-03-28 16:42:00,63.8,37.0,30.05,SSW,198,13.0,16.0,37,0.00,,,0.00,577,weatherlink.com 1.10,2013-03-28 21:42:00,
2013-03-28 16:57:00,63.7,35.0,30.05,SSW,200,7.0,17.0,35,0.00,,,0.00,550,weatherlink.com 1.10,2013-03-28 21:57:00,
2013-03-28 17:12:00,64.0,36.0,30.05,SSW,196,8.0,17.0,36,0.00,,,0.00,506,weatherlink.com 1.10,2013-03-28 22:12:00,
2013-03-28 17:27:00,63.6,37.0,30.04,SSW,192,9.0,13.0,37,0.00,,,0.00,471,weatherlink.com 1.10,2013-03-28 22:27:00,
2013-03-28 17:42:00,63.8,36.0,30.04,SW,216,9.0,17.0,36,0.00,,,0.00,418,weatherlink.com 1.10,2013-03-28 22:42:00,
2013-03-28 17:57:00,63.9,35.0,30.04,SW,223,11.0,17.0,34,0.00,,,0.00,378,weatherlink.com 1.10,2013-03-28 22:57:00,
2013-03-28 18:12:00,63.5,36.0,30.04,South,186,4.0,16.0,36,0.00,,,0.00,316,weatherlink.com 1.10,2013-03-28 23:12:00,
2013-03-28 18:27:00,62.9,35.0,30.04,SW,219,11.0,11.0,36,0.00,,,0.00,265,weatherlink.com 1.10,2013-03-28 23:27:00,
2013-03-28 18:42:00,62.9,37.0,30.05,SSW,202,6.0,12.0,38,0.00,,,0.00,207,weatherlink.com 1.10,2013-03-28 23:42:00,
2013-03-28 18:57:00,62.9,37.0,30.05,SSW,207,2.0,7.0,38,0.00,,,0.00,151,weatherlink.com 1.10,2013-03-28 23:57:00,
2013-03-28 19:12:00,62.2,37.0,30.05,SSW,199,2.0,8.0,39,0.00,,,0.00,95,weatherlink.com 1.10,2013-03-29 00:12:00,
2013-03-28 19:27:00,61.1,38.0,30.05,South,179,0.0,5.0,42,0.00,,,0.00,53,weatherlink.com 1.10,2013-03-29 00:27:00,
2013-03-28 19:42:00,60.2,37.0,30.05,South,180,0.0,1.0,42,0.00,,,0.00,23,weatherlink.com 1.10,2013-03-29 00:42:00,
2013-03-28 19:57:00,59.7,37.0,30.06,South,177,0.0,3.0,43,0.00,,,0.00,11,weatherlink.com 1.10,2013-03-29 00:57:00,
2013-03-28 20:13:00,59.1,36.0,30.06,SSE,157,2.0,4.0,43,0.00,,,0.00,0,weatherlink.com 1.10,2013-03-29 01:13:00,
2013-03-28 20:27:00,58.4,36.0,30.06,SSE,157,0.0,3.0,44,0.00,,,0.00,0,weatherlink.com 1.10,2013-03-29 01:27:00,
2013-03-28 20:42:00,57.2,36.0,30.07,SSE,153,0.0,3.0,45,0.00,,,0.00,0,weatherlink.com 1.10,2013-03-29 01:42:00,
2013-03-28 20:57:00,57.1,36.0,30.07,SE,146,3.0,4.0,45,0.00,,,0.00,0,weatherlink.com 1.10,2013-03-29 01:57:00,
2013-03-28 21:12:00,53.8,36.0,30.07,ESE,112,2.0,3.0,52,0.00,,,0.00,0,weatherlink.com 1.10,2013-03-29 02:12:00,
2013-03-28 21:27:00,51.9,36.0,30.08,ESE,116,0.0,7.0,55,0.00,,,0.00,0,weatherlink.com 1.10,2013-03-29 02:27:00,
2013-03-28 21:42:00,50.6,36.0,30.09,ESE,106,0.0,3.0,57,0.00,,,0.00,0,weatherlink.com 1.10,2013-03-29 02:42:00,
2013-03-28 21:57:00,51.3,36.0,30.09,SE,144,0.0,8.0,57,0.00,,,0.00,0,weatherlink.com 1.10,2013-03-29 02:57:00,
2013-03-28 22:12:00,52.1,36.0,30.10,ESE,116,0.0,8.0,54,0.00,,,0.00,0,weatherlink.com 1.10,2013-03-29 03:12:00,
2013-03-28 22:27:00,50.3,36.0,30.10,SE,143,1.0,7.0,58,0.00,,,0.00,0,weatherlink.com 1.10,2013-03-29 03:27:00,
2013-03-28 22:42:00,48.6,35.0,30.10,ESE,115,1.0,5.0,60,0.00,,,0.00,0,weatherlink.com 1.10,2013-03-29 03:42:00,
2013-03-28 22:57:00,49.1,36.0,30.11,SE,139,0.0,8.0,60,0.00,,,0.00,0,weatherlink.com 1.10,2013-03-29 03:57:00,
2013-03-28 23:12:00,48.3,35.0,30.11,ESE,117,3.0,7.0,60,0.00,,,0.00,0,weatherlink.com 1.10,2013-03-29 04:12:00,
2013-03-28 23:27:00,46.9,35.0,30.11,SE,130,0.0,6.0,64,0.00,,,0.00,0,weatherlink.com 1.10,2013-03-29 04:27:00,
2013-03-28 23:42:00,47.4,35.0,30.11,ESE,113,0.0,6.0,63,0.00,,,0.00,0,weatherlink.com 1.10,2013-03-29 04:42:00,
2013-03-28 23:57:00,46.9,35.0,30.11,SSE,150,0.0,7.0,64,0.00,,,0.00,0,weatherlink.com 1.10,2013-03-29 04:57:00,